#timestamp,LO_Frequency,Hit,StdDev 
1622584815.2,286047001.1,N
1622584835.1,286047000.7,N
1622584836.0,286047000.7,N
1622584855.8,286046998.5,N
1622584875.6,286046998.2,N
1622584895.5,286047001.2,N
1622584915.3,286046998.1,N
1622584935.1,286046998.2,N
1622584955.9,286046998.7,N
1622584975.7,286047000.9,N
1622584995.6,286046998.1,N
1622585015.4,286047000.9,N
1622585035.2,286046998.1,N
1622585055.1,286047000.7,N
1622585056.0,286047000.7,N
1622585075.8,286047001.1,N
1622585095.7,286046998.6,N
1622585115.5,286047001.0,N
1622585135.3,286047000.7,N
1622585155.2,286046998.4,N
1622585175.0,286046998.2,N
1622585175.9,286046998.2,N
1622585195.8,286046998.6,N
1622585215.6,286046998.2,N
1622585235.4,286046998.4,N
1622585255.3,286047000.8,N
1622585275.1,286047001.0,N
1622585295.8,286047001.1,N
1622585315.7,286046998.2,N
1622585335.5,286047000.7,N
1622585355.4,286046998.1,N
1622585375.2,286046998.5,N
1622585395.0,286046998.3,N
1622585395.9,286046998.3,N
1622585415.8,286046998.6,N
1622585435.6,286046998.5,N
1622585455.4,286046998.2,N
1622585475.3,286046998.5,N
1622585495.1,286046998.6,N
1622585515.9,286046998.3,N
1622585535.7,286047001.2,N
1622585555.5,286046998.8,N
1622585575.4,286046998.2,N
1622585595.2,286046998.4,N
1622585615.0,286046998.8,N
1622585616.0,286046998.8,N
1622585635.8,286047001.0,N
1622585655.6,286046998.2,N
1622585675.5,286046998.8,N
1622585695.3,286046998.1,N
1622585715.1,286046998.2,N
1622585735.9,286046998.1,N
1622585755.7,286046998.5,N
1622585775.6,286046998.5,N
1622585795.4,286046998.6,N
1622585815.2,286046998.4,N
1622585835.1,286046998.3,N
1622585836.0,286046998.3,N
1622585855.8,286046998.5,N
1622585875.6,286046998.7,N
1622585895.5,286046998.3,N
1622585915.3,286046999.2,N
1622585935.2,286046999.3,N
1622585955.9,286046999.0,N
1622585975.7,286046998.7,N
1622585995.6,286046998.9,N
1622586015.4,286046998.8,N
1622586035.3,286046998.9,N
1622586055.1,286046999.3,N
1622586056.0,286046999.3,N
1622586075.8,286046998.9,N
1622586095.7,286046998.8,N
1622586115.5,286046999.0,N
1622586135.3,286046999.2,N
1622586155.2,286046996.6,Y
1622586175.0,286046998.2,P
1622586175.9,286046998.2,P
1622586195.8,286046998.2,P
1622586215.6,286046998.3,Y
1622586235.4,286047001.9,P
1622586255.3,286047002.8,N
1622586275.1,286047000.1,N
1622586295.9,286047000.0,N
1622586315.7,286046999.7,N
1622586335.5,286047001.6,N
1622586355.4,286047002.0,N
1622586375.2,286047001.6,N
1622586395.0,286047001.6,N
1622586395.9,286047001.6,N
1622586415.8,286047001.6,N
1622586435.6,286047001.6,N
1622586455.5,286047002.0,N
1622586475.3,286047002.0,N
1622586495.1,286047002.2,N
1622586515.9,286047002.7,N
1622586535.7,286047001.4,N
1622586555.6,286047002.0,N
1622586575.4,286047001.9,N
1622586595.2,286047002.1,N
1622586615.1,286047001.7,N
1622586616.0,286047001.7,N
1622586635.8,286047002.0,N
1622586655.6,286047002.0,N
1622586675.5,286047002.2,N
1622586695.3,286047002.7,N
1622586715.2,286047002.2,N
1622586735.9,286047001.9,N
1622586755.7,286047002.1,N
1622586775.6,286047002.3,N
1622586795.4,286047002.0,N
1622586815.2,286047000.2,N
1622586835.1,286047000.1,N
1622586836.0,286047000.1,N
1622586855.8,286046999.8,N
1622586875.7,286046999.8,N
1622586895.5,286047002.8,Y
1622586915.3,286046998.1,P
1622586935.2,286046998.5,N
1622586955.0,286046998.6,N
1622586955.9,286046998.6,N
1622586975.8,286046998.2,N
1622586995.6,286046998.1,N
1622587015.4,286047001.0,N
1622587035.3,286047000.4,N
1622587055.1,286047000.2,N
1622587075.9,286047000.2,N
1622587095.7,286047000.6,N
1622587115.5,286047000.5,N
1622587135.4,286047000.9,N
1622587155.2,286047000.6,N
1622587175.0,286047000.4,N
1622587175.9,286047000.4,N
1622587195.8,286047000.4,N
1622587215.6,286046999.8,N
1622587235.5,286046999.9,N
1622587255.3,286047000.3,N
1622587275.1,286047000.9,N
1622587295.9,286047001.1,N
1622587315.7,286047000.9,N
1622587335.5,286047000.4,N
1622587355.4,286046999.9,N
1622587375.2,286047000.0,N
1622587395.1,286047000.0,N
1622587396.0,286047000.0,N
1622587415.8,286047000.4,N
1622587435.6,286047000.6,N
1622587455.5,286046999.9,N
1622587475.3,286046999.9,N
1622587495.2,286047000.4,N
1622587515.9,286047001.0,N
1622587535.7,286047000.2,N
1622587555.6,286047000.0,N
1622587575.4,286047000.9,N
1622587595.2,286046999.9,N
1622587615.1,286046999.8,N
1622587616.0,286046999.8,N
1622587635.8,286046999.9,N
1622587655.7,286046999.9,N
1622587675.5,286047001.0,N
1622587695.3,286046998.1,Y
1622587715.2,286046998.5,P
1622587735.0,286046998.1,N
1622587735.9,286046998.1,N
1622587755.8,286046998.5,N
1622587775.6,286047000.7,N
1622587795.4,286047001.1,N
1622587815.3,286047000.9,N
1622587835.1,286047000.6,N
1622587855.8,286047000.6,N
1622587875.7,286047000.8,N
1622587895.5,286047000.8,N
1622587915.4,286046998.5,N
1622587935.2,286047000.3,N
1622587955.0,286047000.4,N
1622587955.9,286047000.4,N
1622587975.8,286047000.6,N
1622587995.6,286047000.5,N
1622588015.5,286047000.5,N
1622588035.3,286047000.0,N
1622588055.1,286047000.1,N
1622588075.9,286046999.8,N
1622588095.7,286047002.8,N
1622588115.5,286046999.8,N
1622588135.4,286047000.4,N
1622588155.2,286047000.3,N
1622588175.1,286047000.6,N
1622588176.0,286047000.6,N
1622588195.8,286047000.5,N
1622588215.6,286047000.5,N
1622588235.5,286047000.6,N
1622588255.3,286047000.3,N
1622588275.2,286047000.5,N
1622588295.9,286047000.4,N
1622588315.7,286046998.1,N
1622588335.6,286047000.3,N
1622588355.4,286046999.9,N
1622588375.2,286046999.8,N
1622588395.1,286047000.5,N
1622588396.0,286047000.5,N
